Regional Weather Roundup
Issued by NWS

Home | Current Version | Previous Version | Text Only | Print | Product List | Glossary On
Versions: 1 2 3 4 5 6 7 8 9 10 11 12 13 14 15 16 17 18 19 20 21 22 23 24 25 26 27 28 29 30 31 32 33 34 35 36 37 38 39 40 41 42 43 44 45 46 47 48 49 50
000
ASUS45 KABQ 241410
RWRNM
NEW MEXICO REGIONAL WEATHER ROUNDUP
NATIONAL WEATHER SERVICE ALBUQUERQUE NM
700 AM MST FRI FEB 24 2017

NOTE: "FAIR" MEANS FEW OR NO CLOUDS BELOW 12,000 FEET AGL WITH NO
       SIGNIFICANT WEATHER OR OBSTRUCTIONS TO VISION.

      THIS PRODUCT IS RELEASED AS TWO VERSIONS.  ONE VERSION NEAR
      THE TOP OF THE HOUR CONTAINING PRELIMINARY DATA FROM ALBUQUERQUE
      AND OTHER STATIONS.  A FINAL VERSION WITH ADDITIONAL DATA IS
      ISSUED ABOUT 10 MINUTES AFTER THE HOUR.

NMZ501-503-504-510>518-241500-
NORTHWEST PLATEAU/NORTHCENTRAL MOUNTAINS

CITY           SKY/WX    TMP DP  RH WIND       PRES   REMARKS
FARMINGTON     FAIR      22   9  57 W7        29.90R WCI  13
LOS ALAMOS     FAIR      23  11  59 W6        29.87R WCI  16
SANTA FE       FAIR      20  10  65 NW3       29.88R
TAOS           FAIR      18   1  49 SW8       29.83R WCI   7
ANGEL FIRE     CLOUDY    18   6  59 W3        29.78S

$$
NMZ402-403-502-505>509-241500-
WESTCENTRAL MOUNTAINS/SOUTHWEST MOUNTAINS

CITY           SKY/WX    TMP DP  RH WIND       PRES   REMARKS
GALLUP         FAIR      20   6  55 SW3       29.95R
GRANTS         FAIR      19   8  62 NW5       29.96R WCI  12
SILVER CITY    FAIR      29  14  54 NW8       30.00R WCI  21

$$
NMZ407-409-411-412-241500-
SOUTHERN DESERTS

CITY           SKY/WX    TMP DP  RH WIND       PRES   REMARKS
DEMING         FAIR      31  16  54 SW9       30.02R WCI  23
LAS CRUCES     FAIR      36  12  36 W18       29.99R WCI  26
HOLLOMAN AFB   FAIR      35  10  35 N9        30.00R WCI  27
ALAMOGORDO     FAIR      39   5  24 CALM      29.97R
T OR C         FAIR      33   8  35 CALM      29.96R

$$
NMZ519>523-241500-
CENTRAL VALLEYS/CENTRAL HIGHLANDS

CITY           SKY/WX    TMP DP  RH WIND       PRES   REMARKS
ALBUQUERQUE    FAIR      30  18  60 SW7       29.93R WCI  23
DOUBLE EAGLE   PTCLDY    19  12  73 SW8       29.93R WCI   9
MORIARTY ARPT  FAIR      27  17  67 W9        29.91R WCI  17
CLINES CORNERS FAIR      22  13  68 W17       29.86R WCI   8
BELEN          FAIR      29  15  57 W8        29.96R WCI  21
SOCORRO        FAIR      35  12  38 NW13      29.96R WCI  27

$$
NMZ524>526-539-540-241500-
SOUTHCENTRAL MOUNTAINS

CITY           SKY/WX    TMP DP  RH WIND       PRES   REMARKS
RUIDOSO        FAIR      28  -4  24 W12G17    29.93R WCI  18

$$
NMZ527>531-241500-
NORTHEAST HIGHLANDS/NORTHEAST PLAINS

CITY           SKY/WX    TMP DP  RH WIND       PRES   REMARKS
LAS VEGAS      FAIR      24   5  44 W18       29.82R WCI  10
RATON          FAIR      10   5  80 NE9       29.79R WCI  -3
CLAYTON        FAIR      19  15  84 N12       29.86R WCI   7

$$
NMZ532>537-241500-
EASTCENTRAL PLAINS

CITY           SKY/WX    TMP DP  RH WIND       PRES   REMARKS
TUCUMCARI      FAIR      24  21  88 E3        29.90R
CANNON AFB     FAIR      25  25 100 N3        29.90R
CLOVIS AIRPORT FAIR      25  19  80 N6        29.90R WCI  18

$$
NMZ028-029-538-241500-
SOUTHEAST PLAINS

CITY           SKY/WX    TMP DP  RH WIND       PRES   REMARKS
ROSWELL        FAIR      41   6  23 NW7         N/A
ARTESIA        FAIR      34  10  37 CALM      29.92R
CARLSBAD       FAIR      50   8  18 NW21G30   29.88R
HOBBS          CLEAR     32   9  37 NW5       29.91R WCI  27


$$



USA.gov is the U.S. government's official web portal to all federal, state and local government web resources and services.